Location: Saint-Palais-sur-Mer
(45.6429°N, 1.0859°W)
Time: 15:48:13
(UTC+01:00)

S-56A Canister/Altair - Pass Details

Date: 13 February 2026
Orbit: 633 x 2484 km, 38.9° (Epoch: 16 March)

Event Time Altitude Azimuth Distance (km) Brightness Sun altitude
Exits shadow 04:42:51 60° 180° (S) 1,978 9.3 -36.3°
Drops below altitude 10° 04:55:34 10° 107° (ESE) 4,838 12.2 -34.2°
Sets 04:59:49 0° 105° (ESE) 6,001 12.9 -33.5°
